Regional Weather Roundup
Issued by NWS Cleveland, OH

Home | Current Version | Previous Version | Graphics & Text | Print | Product List | Glossary On
Versions: 1 2 3 4 5 6 7 8 9 10 11 12 13 14 15 16 17 18 19 20 21 22 23 24 25 26 27 28 29 30 31 32 33 34 35 36 37 38 39 40 41 42 43 44 45 46 47 48 49 50
000
ASUS41 KCLE 301010
RWRCLE
OHIO REGIONAL WEATHER ROUNDUP
NATIONAL WEATHER SERVICE CLEVELAND, OH
600 AM EDT SAT AUG 30 2014

NOTE: "FAIR" INDICATES FEW OR NO CLOUDS BELOW 12,000 FEET WITH NO
SIGNIFICANT WEATHER AND/OR OBSTRUCTIONS TO VISIBILITY.

OHZ001>008-015>018-024>027-034-035-043-044-301100-
   NORTHWEST OHIO

CITY           SKY/WX    TMP DP  RH WIND       PRES   REMARKS
DEFIANCE       CLEAR     73  65  75 S10       29.97S
FINDLAY        CLEAR     68  63  84 S10       30.00S
TOLEDO EXPRESS CLEAR     69  63  81 S7        29.97F
TOLEDO EXEC    PTCLDY    70  62  76 S10       29.99S
LIMA           CLEAR     71  65  81 S10       30.02S
$$

OHZ009>014-019>023-028>033-038-089-301100-
   NORTHEAST OHIO

CITY           SKY/WX    TMP DP  RH WIND       PRES   REMARKS
CLE-HOPKINS    PTCLDY    71  56  58 S12       30.05S
CLE-LAKEFRONT  MOCLDY    71  55  56 SE15      30.01S
CUY CO. ARPT   NOT AVBL
LORAIN-ELYRIA  PTCLDY    69  57  65 S7        30.04S
ASHTABULA      CLEAR     63  56  78 S7        30.08S
AKRON-CANTON   PTCLDY    66  55  67 S3        30.07S
WOOSTER        CLEAR     62  57  83 S3        30.07S
MANSFIELD      CLEAR     69  60  73 S8        30.07S
YOUNGSTOWN     PTCLDY    63  57  81 SE8       30.09S
$$

OHZ042-051>053-060>062-070>072-077>081-301100-
  SOUTHWEST OHIO

CITY           SKY/WX    TMP DP  RH WIND       PRES   REMARKS
CINC-COVINGTON PTCLDY    72  66  81 S8        30.05S
CINC-LUNKEN    CLEAR     69  69 100 CALM      30.05R
HAMILTON       CLEAR     70  69  97 E3        30.05R FOG
DAYTON         PTCLDY    72  68  87 S8        30.05S
WRIGHT-PAT AFB CLEAR     70  68  93 CALM      30.05R
DAYTON GENERAL CLEAR     71  68  90 S7        30.04S
WILMINGTON     CLEAR     70  67  90 S6        30.06R
$$

OHZ036-037-039>041-045>050-054>059-063>069-073>076-082>088-301100-
  CENTRAL AND SOUTHEAST OHIO

CITY           SKY/WX    TMP DP  RH WIND       PRES   REMARKS
COLUMBUS       CLEAR     72  62  71 SE3       30.05R
OSU AIRPORT    CLEAR     71  62  73 S5        30.05S
BOLTON FIELD   CLEAR     66  64  91 S6        30.06R
RICKENBACK AFB CLEAR     68  60  74 CALM      30.05S
NEWARK         CLEAR     64  62  93 CALM      30.07R
MARION         CLEAR     66  61  84 S7        30.05R
LANCASTER      CLEAR     66  63  90 SE3       30.07R
ZANESVILLE     MOCLDY    65  60  84 CALM      30.08R
NEW PHILLY     CLEAR     61  59  93 SE5       30.08S
$$



USA.gov is the U.S. government's official web portal to all federal, state and local government web resources and services.